This is the latest recevied weather packets stored in our database for station/object DL1MMS-10. If no packets are shown the sender has not sent any weather packets the latest 10 day(s).
| Time | Temp. | Humidity | Pressure | Rain* | Wind** | Luminosity | Snow |
|---|---|---|---|---|---|---|---|
| 1777748353 | 17.78° C | 45% | 1018.6 hPa | 0 mm | - | - | - |
| 1777748053 | 17.78° C | 44% | 1018.8 hPa | 0 mm | - | - | - |
| 1777747752 | 18.33° C | 43% | 1018.7 hPa | 0 mm | - | - | - |
| 1777747452 | 18.89° C | 42% | 1018.6 hPa | 0 mm | - | - | - |
| 1777747152 | 19.44° C | 42% | 1018.7 hPa | 0 mm | - | - | - |
| 1777746852 | 20.56° C | 40% | 1018.7 hPa | 0 mm | - | - | - |
| 1777746551 | 21.11° C | 36% | 1018.7 hPa | 0 mm | - | - | - |
| 1777746251 | 21.11° C | 35% | 1018.6 hPa | 0 mm | - | - | - |
| 1777745951 | 21.67° C | 34% | 1018.5 hPa | 0 mm | - | - | - |
| 1777745651 | 22.22° C | 34% | 1018.7 hPa | 0 mm | - | - | - |
| 1777745350 | 22.78° C | 33% | 1018.6 hPa | 0 mm | - | - | - |
| 1777745050 | 22.78° C | 33% | 1018.5 hPa | 0 mm | - | - | - |
| 1777744750 | 23.33° C | 33% | 1018.6 hPa | 0 mm | - | - | - |
| 1777744449 | 23.89° C | 32% | 1018.6 hPa | 0 mm | - | - | - |
| 1777744149 | 23.89° C | 31% | 1018.5 hPa | 0 mm | - | - | - |
| 1777743849 | 23.89° C | 30% | 1018.6 hPa | 0 mm | - | - | - |
| 1777743549 | 24.44° C | 29% | 1018.6 hPa | 0 mm | - | - | - |
| 1777743248 | 24.44° C | 28% | 1018.6 hPa | 0 mm | - | - | - |
| 1777742948 | 25° C | 28% | 1018.6 hPa | 0 mm | - | - | - |
| 1777742648 | 25.56° C | 27% | 1018.6 hPa | 0 mm | - | - | - |
| 1777742347 | 26.11° C | 25% | 1018.6 hPa | 0 mm | - | - | - |
| 1777742047 | 26.67° C | 24% | 1018.6 hPa | 0 mm | - | - | - |
| 1777741747 | 27.22° C | 23% | 1018.5 hPa | 0 mm | - | - | - |
| 1777741446 | 27.78° C | 23% | 1018.6 hPa | 0 mm | - | - | - |
| 1777741146 | 27.78° C | 22% | 1018.5 hPa | 0 mm | - | - | - |
* Rain latest hour (hover to see other rain measurements)
** Current wind speed in m/s (hover to see current wind gust speed)